Home   Weather   Wainwright   Past weeks

Flag for USA Past Weather in Wainwright, Alaska, USA — Yesterday and Last 2 Weeks

Now
9 °F

Overcast.


Feels Like: -7 °F
Forecast: -1 / 10 °F
Wind: 13 mph from East

Location: Wainwright Distant Early Warning

Current Time: Apr 25, 2017 at 10:42:59 am

Latest Report: Apr 25, 2017 at 9:53 am


Visibility: 10 mi

Pressure: 30.02 "Hg

Humidity: 91%

Dew Point: 7 °F

Location of WainwrightLocation

Past Weather in Wainwright — Graph

°F

Wainwright Temperature Yesterday

Maximum temperature yesterday: 14 °F (at 4:53 pm)
Minimum temperature yesterday: 1 °F (at 5:53 am)
Average temperature yesterday: 8 °F

High & Low Weather Summary for the Past Weeks

 TemperatureHumidityPressure
High22 °F (Apr 11, 2:53 pm)100% (Apr 11, 10:53 pm)30.56 "Hg (Apr 11, 10:53 pm)
Low-8 °F (Apr 23, 4:53 am)69% (Apr 21, 10:53 am)29.98 "Hg (Apr 10, 8:56 am)
Average7 °F87%30.32 "Hg
* Reported Apr 10 8:56 am — Apr 25 8:53 am, Wainwright, Weather by CustomWeather, © 2017

Note: Actual official high and low records may vary slightly from our data, if they occured in-between our weather recording intervals... More about our weather records

Advertising

Wainwright Weather History for the Previous 24 Hours

Scroll right to see more
 ConditionsComfort  
Time TempWeatherWind HumidityBarometerVisibility
8:53 am
Tue, Apr 25
9 °FLow clouds.14 mph88%30.03 "Hg10 mi
7:53 am9 °FLow clouds.10 mph88%30.03 "Hg10 mi
6:53 am9 °FLow clouds.8 mph91%30.03 "Hg10 mi
5:53 am9 °FLight snow. Overcast.12 mph88%30.03 "Hg9 mi
4:53 am10 °FOvercast.9 mph88%30.03 "Hg10 mi
3:53 am11 °FOvercast.12 mph84%30.03 "Hg10 mi
2:53 am11 °FLight snow. Overcast.10 mph88%30.03 "Hg7 mi
1:53 am11 °FLight snow. Overcast.12 mph88%30.04 "Hg9 mi
12:53 am11 °FOvercast.13 mph88%30.04 "Hg9 mi
11:53 pm
Mon, Apr 24
12 °FLight snow. Overcast.10 mph88%30.04 "Hg9 mi
10:53 pm12 °FLight snow. Overcast.9 mph88%30.04 "Hg7 mi
9:53 pm13 °FOvercast.13 mph84%30.04 "Hg10 mi
8:53 pm13 °FOvercast.12 mph88%30.04 "Hg10 mi
6:53 pm13 °FOvercast.14 mph88%30.04 "Hg10 mi
5:53 pm13 °FOvercast.13 mph88%30.05 "Hg10 mi
4:53 pm14 °FOvercast.13 mph80%30.06 "Hg10 mi
3:53 pm12 °FOvercast.7 mph88%30.06 "Hg8 mi
2:53 pm10 °FLight snow. Ice fog.6 mph88%30.07 "Hg5 mi
1:53 pm8 °FLight snow. Ice fog.10 mph87%30.07 "Hg3 mi
12:53 pm9 °FLight snow. Ice fog.12 mph88%30.08 "Hg6 mi
11:53 am9 °FLight snow. Ice fog.9 mph91%30.07 "Hg4 mi
10:53 am7 °FLight snow. Ice fog.7 mph91%30.07 "Hg4 mi
Weather by CustomWeather, © 2017

See weather overviewHow to use our weather pages